Stations météo

réclame
Mon MeteoGroup
Capo Frasca, Italie (16539): Température de l'air & dewpoint: 17.01.2019 08:00:00 - 23.01.2019 08:00:00 (CET)Capo Frasca, Italie (16539): Vitesse du vent: 17.01.2019 08:00:00 - 23.01.2019 08:00:00 (CET)Capo Frasca, Italie (16539): Direction du vent: 17.01.2019 08:00:00 - 23.01.2019 08:00:00 (CET)Capo Frasca, Italie (16539): reduced air pressure: 17.01.2019 08:00:00 - 23.01.2019 08:00:00 (CET)Capo Frasca, Italie (16539): visibility: 17.01.2019 08:00:00 - 23.01.2019 08:00:00 (CET)
Date & Time tt [°C] td [°C] ff [km/h] ff [knt] dd ppp [hPa] vv [km]
23.01.2019 08:00:00 - - - - - - -
23.01.2019 07:00:00 3,2 2,3 9 5 SSE 1001,2 25
23.01.2019 06:00:00 - - - - - - -
23.01.2019 05:00:00 - - - - - - -
23.01.2019 04:00:00 - - - - - - -
23.01.2019 03:00:00 - - - - - - -
23.01.2019 02:00:00 - - - - - - -
23.01.2019 01:00:00 - - - - - - -
23.01.2019 00:00:00 - - - - - - -
22.01.2019 23:00:00 - - - - - - -
22.01.2019 22:00:00 - - - - - - -
22.01.2019 21:00:00 - - - - - - -
22.01.2019 20:00:00 - - - - - - -
22.01.2019 19:00:00 7,6 3,3 22 12 NW 1007,0 25
22.01.2019 18:00:00 - - - - - - -
22.01.2019 17:00:00 - - - - - - -
22.01.2019 16:00:00 9,0 7,4 18 10 NNW 1007,5 25
22.01.2019 15:00:00 - - - - - - -
22.01.2019 14:00:00 - - - - - - -
22.01.2019 13:00:00 9,4 6,5 28 15 NNW 1009,5 25
22.01.2019 12:00:00 - - - - - - -
22.01.2019 11:00:00 - - - - - - -
22.01.2019 10:00:00 7,8 6,4 15 8 NNW 1010,6 20
22.01.2019 09:00:00 - - - - - - -
22.01.2019 08:00:00 - - - - - - -
22.01.2019 07:00:00 6,8 5,7 24 13 NNE 1009,8 15
22.01.2019 06:00:00 - - - - - - -
22.01.2019 05:00:00 - - - - - - -
22.01.2019 04:00:00 - - - - - - -
22.01.2019 03:00:00 - - - - - - -
22.01.2019 02:00:00 - - - - - - -
22.01.2019 01:00:00 - - - - - - -
22.01.2019 00:00:00 - - - - - - -
21.01.2019 23:00:00 - - - - - - -
21.01.2019 22:00:00 - - - - - - -
21.01.2019 21:00:00 - - - - - - -
21.01.2019 20:00:00 - - - - - - -
21.01.2019 19:00:00 8,0 6,8 24 13 N 1008,3 20
21.01.2019 18:00:00 - - - - - - -
21.01.2019 17:00:00 - - - - - - -
21.01.2019 16:00:00 7,2 6,0 18 10 N 1007,4 25
21.01.2019 15:00:00 - - - - - - -
21.01.2019 14:00:00 - - - - - - -
21.01.2019 13:00:00 8,0 6,8 26 14 NE 1007,3 20
21.01.2019 12:00:00 - - - - - - -
21.01.2019 11:00:00 - - - - - - -
21.01.2019 10:00:00 6,4 5,8 26 14 ENE 1007,6 10
21.01.2019 09:00:00 - - - - - - -
21.01.2019 08:00:00 - - - - - - -
21.01.2019 07:00:00 7,0 6,1 22 12 ENE 1007,4 60
21.01.2019 06:00:00 - - - - - - -
21.01.2019 05:00:00 - - - - - - -
21.01.2019 04:00:00 - - - - - - -
21.01.2019 03:00:00 - - - - - - -
21.01.2019 02:00:00 - - - - - - -
21.01.2019 01:00:00 - - - - - - -
21.01.2019 00:00:00 - - - - - - -
20.01.2019 23:00:00 - - - - - - -
20.01.2019 22:00:00 - - - - - - -
20.01.2019 21:00:00 - - - - - - -
20.01.2019 20:00:00 - - - - - - -
20.01.2019 19:00:00 9,2 8,7 4 2 NE 1011,1 20
20.01.2019 18:00:00 - - - - - - -
20.01.2019 17:00:00 - - - - - - -
20.01.2019 16:00:00 11,4 8,6 2 1 SSW 1011,3 25
20.01.2019 15:00:00 - - - - - - -
20.01.2019 14:00:00 - - - - - - -
20.01.2019 13:00:00 11,2 7,7 2 1 SE 1012,4 25
20.01.2019 12:00:00 - - - - - - -
20.01.2019 11:00:00 - - - - - - -
20.01.2019 10:00:00 7,4 6,7 8 4 S 1013,3 25
20.01.2019 09:00:00 - - - - - - -
20.01.2019 08:00:00 - - - - - - -
20.01.2019 07:00:00 4,6 3,7 2 1 SE 1012,9 15
20.01.2019 06:00:00 - - - - - - -
20.01.2019 05:00:00 - - - - - - -
20.01.2019 04:00:00 - - - - - - -
20.01.2019 03:00:00 - - - - - - -
20.01.2019 02:00:00 - - - - - - -
20.01.2019 01:00:00 - - - - - - -
20.01.2019 00:00:00 - - - - - - -
19.01.2019 23:00:00 - - - - - - -
19.01.2019 22:00:00 - - - - - - -
19.01.2019 21:00:00 - - - - - - -
19.01.2019 20:00:00 - - - - - - -
19.01.2019 19:00:00 8,8 8,5 8 4 ESE 1013,3 20
19.01.2019 18:00:00 - - - - - - -
19.01.2019 17:00:00 - - - - - - -
19.01.2019 16:00:00 10,4 8,8 8 4 ESE 1013,6 20
19.01.2019 15:00:00 - - - - - - -
19.01.2019 14:00:00 - - - - - - -
19.01.2019 13:00:00 11,2 8,1 4 2 SE 1015,1 20
19.01.2019 12:00:00 - - - - - - -
19.01.2019 11:00:00 - - - - - - -
19.01.2019 10:00:00 8,6 7,2 9 5 SSE 1015,6 20
19.01.2019 09:00:00 - - - - - - -
19.01.2019 08:00:00 - - - - - - -
19.01.2019 07:00:00 4,0 3,7 9 5 SE 1015,6 20
19.01.2019 06:00:00 - - - - - - -
19.01.2019 05:00:00 - - - - - - -
19.01.2019 04:00:00 - - - - - - -
19.01.2019 03:00:00 - - - - - - -
19.01.2019 02:00:00 - - - - - - -
19.01.2019 01:00:00 - - - - - - -
19.01.2019 00:00:00 - - - - - - -
18.01.2019 23:00:00 - - - - - - -
18.01.2019 22:00:00 - - - - - - -
18.01.2019 21:00:00 - - - - - - -
18.01.2019 20:00:00 - - - - - - -
18.01.2019 19:00:00 8,8 6,4 15 8 N 1015,8 25
18.01.2019 18:00:00 - - - - - - -
18.01.2019 17:00:00 - - - - - - -
18.01.2019 16:00:00 11,2 7,3 16 9 N 1015,3 20
18.01.2019 15:00:00 - - - - - - -
18.01.2019 14:00:00 - - - - - - -
18.01.2019 13:00:00 12,0 8,7 22 12 N 1015,6 20
18.01.2019 12:00:00 - - - - - - -
18.01.2019 11:00:00 - - - - - - -
18.01.2019 10:00:00 10,8 9,9 4 2 WSW 1015,3 20
18.01.2019 09:00:00 - - - - - - -
18.01.2019 08:00:00 - - - - - - -
18.01.2019 07:00:00 6,0 5,2 11 6 SSE 1014,7 20
18.01.2019 06:00:00 - - - - - - -
18.01.2019 05:00:00 - - - - - - -
18.01.2019 04:00:00 - - - - - - -
18.01.2019 03:00:00 - - - - - - -
18.01.2019 02:00:00 - - - - - - -
18.01.2019 01:00:00 - - - - - - -
18.01.2019 00:00:00 - - - - - - -
17.01.2019 23:00:00 - - - - - - -
17.01.2019 22:00:00 - - - - - - -
17.01.2019 21:00:00 - - - - - - -
17.01.2019 20:00:00 - - - - - - -
17.01.2019 19:00:00 9,4 9,1 5 3 WSW 1016,0 20
17.01.2019 18:00:00 - - - - - - -
17.01.2019 17:00:00 - - - - - - -
17.01.2019 16:00:00 12,8 10,0 4 2 WSW 1016,0 20
17.01.2019 15:00:00 - - - - - - -
17.01.2019 14:00:00 - - - - - - -
17.01.2019 13:00:00 13,0 11,2 13 7 WSW 1016,9 20
17.01.2019 12:00:00 - - - - - - -
17.01.2019 11:00:00 - - - - - - -
17.01.2019 10:00:00 10,8 10,0 0 0 N 1017,5 20
17.01.2019 09:00:00 - - - - - - -
17.01.2019 08:00:00 - - - - - - -

tt = Température de l'air
td = dewpoint
ff = Vitesse du vent
dd = Direction du vent
ppp = reduced air pressure
vv = visibility

stations d'obs. à proximité